Terug naar catalogus

SL-16 DEB

ActiefLEO
NORAD 22224·DEBRIS·🇷🇺 Russia

Gelanceerd Nov 17, 1992 vanaf Baikonur Cosmodrome

Loading…

Volgende Passages (komende 24 uur)

TLE

VersSource: Space-Track

Epoch: Sep 14, 2026, 13:03 UTC

1 22224U 92076F   26257.54399148  .00000019  00000-0  57523-4 0  9997
2 22224  70.9899  91.1232 0195847 218.1151 140.5965 13.74981658696729

Volg SL-16 DEB in realtime met AllMySat

Download on the App Store